Stündliche Wetter Aarberg

Heute, 2 März, Dienstag

Zeit Temperatur Niederschläge Wind Luftdruck Luftfeuchtigkeit
00:00 +4°C° 0 mm 1 m/S 726 mmHg 71%
01:00 +4°C° 0 mm 1 m/S 726 mmHg 69%
02:00 +4°C° 0 mm 1 m/S 726 mmHg 68%
03:00 +4°C° 0 mm 1 m/S 726 mmHg 67%
04:00 +4°C° 0 mm 1 m/S 726 mmHg 66%
05:00 +3°C° 0 mm 1 m/S 726 mmHg 64%
06:00 +2°C° 0 mm 0 m/S 726 mmHg 62%
07:00 +4°C° 0 mm 0 m/S 726 mmHg 57%
08:00 +7°C° 0 mm 0 m/S 727 mmHg 53%
09:00 +9°C° 0 mm 0 m/S 727 mmHg 49%
10:00 +11°C° 0 mm 0 m/S 727 mmHg 46%
11:00 +12°C° 0 mm 0 m/S 727 mmHg 44%
12:00 +15°C° 0 mm 1 m/S 727 mmHg 41%
13:00 +14°C° 0 mm 0 m/S 727 mmHg 42%
14:00 +14°C° 0 mm 0 m/S 727 mmHg 43%
15:00 +14°C° 0 mm 0 m/S 726 mmHg 44%
16:00 +12°C° 0 mm 0 m/S 726 mmHg 51%
17:00 +10°C° 0 mm 0 m/S 727 mmHg 57%
18:00 +7°C° 0 mm 0 m/S 727 mmHg 63%
19:00 +7°C° 0 mm 0 m/S 727 mmHg 61%
20:00 +8°C° 0 mm 1 m/S 727 mmHg 59%
21:00 +7°C° 0 mm 1 m/S 727 mmHg 57%
22:00 +7°C° 0 mm 1 m/S 727 mmHg 56%
23:00 +6°C° 0 mm 1 m/S 727 mmHg 55%

Morgen, 3 März, Mittwoch

Zeit Temperatur Niederschläge Wind Luftdruck Luftfeuchtigkeit
00:00 +6°C° 0 mm 1 m/S 727 mmHg 54%
01:00 +6°C° 0 mm 1 m/S 727 mmHg 54%
02:00 +6°C° 0 mm 1 m/S 727 mmHg 55%
03:00 +5°C° 0 mm 1 m/S 726 mmHg 55%
04:00 +5°C° 0 mm 1 m/S 726 mmHg 55%
05:00 +5°C° 0 mm 1 m/S 726 mmHg 56%
06:00 +5°C° 0 mm 1 m/S 726 mmHg 56%
07:00 +7°C° 0 mm 1 m/S 726 mmHg 53%
08:00 +9°C° 0 mm 1 m/S 726 mmHg 51%
09:00 +10°C° 0 mm 0 m/S 726 mmHg 48%
10:00 +13°C° 0 mm 1 m/S 726 mmHg 47%
11:00 +14°C° 0 mm 1 m/S 726 mmHg 45%
12:00 +16°C° 0 mm 1 m/S 726 mmHg 43%
13:00 +16°C° 0 mm 1 m/S 726 mmHg 44%
14:00 +16°C° 0 mm 1 m/S 725 mmHg 46%
15:00 +15°C° 0 mm 0 m/S 725 mmHg 47%
16:00 +13°C° 0 mm 0 m/S 724 mmHg 55%
17:00 +10°C° 0 mm 0 m/S 724 mmHg 63%
18:00 +8°C° 0 mm 0 m/S 724 mmHg 70%
19:00 +8°C° 0 mm 0 m/S 724 mmHg 72%
20:00 +8°C° 0 mm 0 m/S 724 mmHg 73%
21:00 +7°C° 0 mm 0 m/S 723 mmHg 75%
22:00 +8°C° 0 mm 1 m/S 723 mmHg 75%
23:00 +7°C° 0 mm 1 m/S 723 mmHg 75%

übermorgen, 4 März, Donnerstag

Zeit Temperatur Niederschläge Wind Luftdruck Luftfeuchtigkeit
00:00 +7°C° 0 mm 1 m/S 723 mmHg 75%
01:00 +7°C° 0 mm 1 m/S 722 mmHg 75%
02:00 +7°C° 0 mm 1 m/S 722 mmHg 75%
03:00 +6°C° 0 mm 1 m/S 721 mmHg 75%
04:00 +6°C° 0 mm 1 m/S 721 mmHg 75%
05:00 +6°C° 0 mm 1 m/S 721 mmHg 75%
06:00 +6°C° 0 mm 1 m/S 721 mmHg 74%
07:00 +7°C° 0 mm 1 m/S 720 mmHg 69%
08:00 +9°C° 0 mm 1 m/S 720 mmHg 64%
09:00 +11°C° 0 mm 1 m/S 720 mmHg 58%
10:00 +12°C° 0 mm 1 m/S 720 mmHg 56%
11:00 +13°C° 0 mm 2 m/S 719 mmHg 54%
12:00 +14°C° 0 mm 2 m/S 719 mmHg 52%
13:00 +14°C° 0.1 mm 2 m/S 719 mmHg 55%
14:00 +13°C° 0.1 mm 2 m/S 718 mmHg 57%
15:00 +12°C° 0.1 mm 3 m/S 717 mmHg 60%
16:00 +12°C° 0.3 mm 2 m/S 717 mmHg 69%
17:00 +10°C° 0.3 mm 1 m/S 717 mmHg 77%
18:00 +9°C° 0.3 mm 1 m/S 717 mmHg 86%
19:00 +9°C° 0.6 mm 1 m/S 717 mmHg 88%
20:00 +8°C° 0.6 mm 1 m/S 718 mmHg 90%
21:00 +8°C° 0.6 mm 1 m/S 718 mmHg 92%
22:00 +8°C° 0.3 mm 1 m/S 718 mmHg 93%
23:00 +8°C° 0.3 mm 1 m/S 717 mmHg 93%

5 März, Freitag

Zeit Temperatur Niederschläge Wind Luftdruck Luftfeuchtigkeit
00:00 +7°C° 0.3 mm 1 m/S 717 mmHg 93%
01:00 +7°C° 0.2 mm 1 m/S 717 mmHg 94%
02:00 +5°C° 0.2 mm 0 m/S 717 mmHg 94%
03:00 +5°C° 0.2 mm 0 m/S 717 mmHg 94%
04:00 +5°C° 0.1 mm 0 m/S 717 mmHg 94%
05:00 +5°C° 0.1 mm 0 m/S 717 mmHg 94%
06:00 +5°C° 0.1 mm 0 m/S 717 mmHg 94%
07:00 +7°C° 0.1 mm 1 m/S 717 mmHg 91%
08:00 +8°C° 0.1 mm 1 m/S 718 mmHg 88%
09:00 +8°C° 0.1 mm 1 m/S 718 mmHg 85%
10:00 +8°C° 0.2 mm 1 m/S 718 mmHg 83%
11:00 +8°C° 0.2 mm 2 m/S 718 mmHg 81%
12:00 +8°C° 0.2 mm 2 m/S 718 mmHg 79%
13:00 +7°C° 0.1 mm 3 m/S 718 mmHg 80%
14:00 +7°C° 0.1 mm 3 m/S 718 mmHg 82%
15:00 +5°C° 0.1 mm 3 m/S 718 mmHg 83%
16:00 +4°C° 0.1 mm 3 m/S 718 mmHg 86%
17:00 +3°C° 0.1 mm 3 m/S 719 mmHg 89%
18:00 +3°C° 0.1 mm 3 m/S 719 mmHg 92%
19:00 +2°C° 0.1 mm 3 m/S 719 mmHg 92%
20:00 +1°C° 0.1 mm 4 m/S 720 mmHg 93%
21:00 +1°C° 0.1 mm 4 m/S 720 mmHg 93%
22:00 0°C° 0 mm 4 m/S 721 mmHg 92%
23:00 -1°C° 0 mm 4 m/S 721 mmHg 90%

6 März, Samstag

Zeit Temperatur Niederschläge Wind Luftdruck Luftfeuchtigkeit
00:00 -1°C° 0 mm 4 m/S 721 mmHg 89%
01:00 -2°C° 0 mm 4 m/S 721 mmHg 90%
02:00 -1°C° 0 mm 3 m/S 721 mmHg 91%
03:00 -2°C° 0 mm 3 m/S 721 mmHg 92%
04:00 -2°C° 0 mm 3 m/S 721 mmHg 91%
05:00 -2°C° 0 mm 3 m/S 721 mmHg 91%
06:00 -2°C° 0 mm 3 m/S 721 mmHg 90%
07:00 -1°C° 0 mm 3 m/S 722 mmHg 86%
08:00 0°C° 0 mm 3 m/S 722 mmHg 83%
09:00 +1°C° 0 mm 3 m/S 722 mmHg 79%
10:00 +2°C° 0 mm 3 m/S 722 mmHg 75%
11:00 +3°C° 0 mm 3 m/S 722 mmHg 71%
12:00 +4°C° 0 mm 3 m/S 722 mmHg 67%
13:00 +4°C° 0 mm 3 m/S 722 mmHg 65%
14:00 +5°C° 0 mm 3 m/S 722 mmHg 64%
15:00 +5°C° 0 mm 3 m/S 722 mmHg 62%
16:00 +5°C° 0 mm 2 m/S 722 mmHg 68%
17:00 +3°C° 0 mm 2 m/S 722 mmHg 74%
18:00 +3°C° 0 mm 1 m/S 722 mmHg 80%
19:00 +2°C° 0 mm 1 m/S 722 mmHg 80%
20:00 +2°C° 0 mm 1 m/S 722 mmHg 79%
21:00 +1°C° 0 mm 1 m/S 722 mmHg 78%
22:00 +1°C° 0 mm 1 m/S 722 mmHg 78%
23:00 +1°C° 0 mm 1 m/S 722 mmHg 78%

7 März, Sonntag

Zeit Temperatur Niederschläge Wind Luftdruck Luftfeuchtigkeit
00:00 +1°C° 0 mm 1 m/S 722 mmHg 78%
01:00 +1°C° 0 mm 1 m/S 722 mmHg 79%
02:00 0°C° 0 mm 0 m/S 721 mmHg 80%
03:00 0°C° 0 mm 0 m/S 721 mmHg 81%
04:00 0°C° 0 mm 0 m/S 721 mmHg 82%
05:00 0°C° 0 mm 0 m/S 721 mmHg 83%
06:00 0°C° 0 mm 0 m/S 721 mmHg 84%
07:00 +2°C° 0 mm 0 m/S 721 mmHg 77%
08:00 +5°C° 0 mm 0 m/S 721 mmHg 71%
09:00 +8°C° 0 mm 1 m/S 721 mmHg 65%
10:00 +9°C° 0 mm 1 m/S 720 mmHg 65%
11:00 +9°C° 0 mm 2 m/S 720 mmHg 66%
12:00 +10°C° 0 mm 2 m/S 719 mmHg 66%
13:00 +9°C° 0.1 mm 2 m/S 719 mmHg 69%
14:00 +10°C° 0.1 mm 1 m/S 718 mmHg 71%
15:00 +10°C° 0.1 mm 1 m/S 718 mmHg 74%
16:00 +8°C° 0 mm 1 m/S 717 mmHg 79%
17:00 +6°C° 0 mm 0 m/S 717 mmHg 85%
18:00 +4°C° 0 mm 0 m/S 717 mmHg 90%
19:00 +4°C° 0 mm 0 m/S 717 mmHg 91%
20:00 +3°C° 0 mm 0 m/S 717 mmHg 91%
21:00 +3°C° 0 mm 0 m/S 717 mmHg 91%
22:00 +3°C° 0 mm 0 m/S 717 mmHg 91%
23:00 +2°C° 0 mm 0 m/S 717 mmHg 91%
Mehr zeigen

Wir brauchen deine Erlaubnis

Meteoprog und unser Service Anbieter werden persönliche Daten aufbewahren, so wie Cookies, Geräte Bezeichnung oder ähnliche Technologien von deinem Gerät und Prozess, so wie Persönliche Daten Inhalte und Werbungen, genauso wie social Media und den Verkehr zu analysieren.

  • Aufbewahrung und/oder Zugang zu deiner Geräte Informationen.

    Cookies, Geräte Bezeichnung oder andere Informationen, können aufbewahrt oder Zugang zu deinem Gerät erhalten, für den Grund, der oben angegeben wird.

  • Personalisierte Werbung und Inhalte, Messungen, Einblick in das Publikum und Produkt Entwicklung.

    Werbungen und Inhalte können personalisiert werden, basierend auf ein Profil. Mehr Daten können besser personalisierte Werbungen und Inhalte hinzufügen. Werbung und Inhalte können gezeigt und gemessen werden. Einblicke über das Publikum, welche die Werbung gesehen haben und den Inhalt, können abgeleitet werden. So wie Daten können genutzt werden, um es zu verbessern oder die Benutzer Erfahrung zu verbessern das System und die Software.

Wenn du “Ich stimme zu” klickst, erlaubst du uns, die Cookies zu benutzen die Geräte Bezeichnung, den Web oder ähnliche Technologien zu benutzen. Deine Settings, können in deinem Gerät bei deinem Browser geändert werden.

Für den bestimmten Zweck, berechtigten Interessen beruhen darauf, mehr als auf den Inhalt. Du kannst mehr darüber in unseren Privaten und Cookie Politik lesen.